NEE-01 PEGASO

Last updated on Sun Jun 21 2026 00:03:50 GMT+0000 (Coordinated Universal Time)

1 39151U 13018B 26171.34717294 .00002638 00000+0 25490-3 0 9997 2 39151 98.1230 315.6014 0013386 148.8934 211.3080 14.93674117711177
UTC large
Height (km)
Speed (km/s)
/
Latitude / Longitude
Inclination (degrees)
Orbital Period (minutes)
Azimuth
Elevation
Range (km)
Doppler Factor

Next 0 passes for location: London (51.5072 / 0.1276)

No passes found over London.
NEE-01 PEGASO